GFSSGP_con_sbcape_132.txt.gz
CAPE
0 0 0 0 0 0 0 0 0 0 0 38 47 51 64 61 95 92 709 804 1106 1630 1959 2004 1716 1875 1840 1683 1387 1234 1191 1194 1227 1313 1437 1381 1278 1321 1362 1535 1773 1523 848 258 140 96 153 247 225
0 0 0 0 0 0 0 0 0 0 26 104 127 101 71 137 94 144 1352 1252 1020 1525 1782 1865 1819 1741 1858 1650 1367 1246 1237 1228 1239 1327 1509 1495 1437 1330 1349 1403 1396 1008 473 196 145 85 86 108 79
0 0 0 0 0 0 0 0 0 0 0 172 137 87 64 160 125 786 1318 1139 1107 1316 1425 1801 2058 1756 1840 1639 1364 1300 1261 1242 1256 1361 1530 1531 1617 1440 1271 1244 1200 745 375 267 280 226 222 268 273
0 0 0 0 0 0 0 0 0 0 0 646 317 395 64 112 361 676 1424 1294 1000 1017 1270 2148 2115 1881 1800 1655 1419 1361 1313 1295 1321 1415 1489 1613 1631 1544 1314 1088 894 687 346 308 345 418 474 436 397
0 0 0 0 0 0 0 0 0 0 0 0 346 49 202 17 40 967 1521 1142 794 948 1443 2015 2039 1968 1850 1702 1513 1431 1341 1262 1332 1453 1459 1547 1563 1473 1304 1065 844 810 683 493 483 478 660 517 485
0 0 0 0 0 0 0 0 0 0 0 152 436 195 28 0 670 1451 1258 811 867 1192 1643 1837 2049 1936 1763 1636 1528 1428 1292 1269 1341 1435 1453 1455 1399 1361 1266 1054 886 810 853 897 700 757 564 347 231
0 0 0 0 0 0 0 0 0 0 0 120 202 54 109 23 194 1285 839 892 1080 1165 1464 1705 1702 1780 1793 1570 1488 1403 1255 1245 1317 1331 1317 1304 1234 1213 1141 1011 860 670 710 938 1068 868 634 449 340
0 0 0 0 0 0 0 0 0 0 0 0 437 674 346 450 582 866 676 1112 1000 941 1233 1312 1335 1509 1439 1382 1606 1461 1357 1348 1292 1291 1251 1184 1152 1100 1005 668 769 679 543 635 780 879 765 577 469
0 0 0 0 0 0 0 0 0 0 0 0 50 43 266 491 706 672 1118 825 625 726 962 1120 1156 1143 1170 1349 1464 1480 1469 1458 1335 1259 1218 851 546 626 682 505 767 744 572 500 585 691 665 612 597
0 0 0 0 0 0 0 0 0 0 0 0 0 0 1 507 443 1088 1000 713 563 482 525 751 882 830 916 1364 1272 1135 1076 1102 953 858 798 379 194 213 372 415 683 783 679 507 436 491 536 544 39
0 0 0 0 0 0 0 0 0 0 0 0 0 32 930 686 630 1206 974 711 452 307 333 334 375 412 851 1127 850 821 1024 840 634 540 430 116 10 105 184 17 141 284 438 80 166 87 55 17 3
0 0 0 0 0 0 0 0 0 0 0 0 0 355 0 0 238 57 280 141 173 176 131 140 120 114 187 526 448 419 513 299 136 145 221 13 0 0 0 0 0 18 34 21 0 0 0 0 0
0 0 0 0 0 0 0 0 0 0 0 0 0 0 0 0 96 47 308 162 44 42 22 3 33 74 8 159 65 38 78 65 63 25 68 0 0 0 0 0 6 9 0 2 0 0 0 0 0
0 0 0 0 0 0 0 0 0 0 0 0 0 0 2 144 88 166 28 190 0 0 0 0 83 9 50 78 20 33 29 19 0 0 4 0 0 0 0 0 7 0 0 0 0 0 0 16 45
0 0 0 0 0 0 0 0 0 0 0 0 0 0 0 0 121 403 4 85 72 0 22 35 229 60 276 98 51 100 68 28 0 0 0 26 0 0 0 28 0 0 0 0 22 197 178 149 290
0 0 0 0 0 0 0 0 0 0 0 0 0 0 0 0 0 0 6 31 64 71 240 239 202 8 21 387 221 98 188 104 85 16 9 180 78 11 2 518 384 232 335 157 5 38 42 29 10
0 0 0 0 0 0 0 0 0 0 0 0 0 0 0 0 0 74 161 72 2 151 171 314 197 193 97 64 311 658 494 389 326 354 186 236 326 576 608 1126 903 449 0 0 0 0 0 0 0
0 0 0 0 0 0 0 0 0 0 0 0 0 0 0 0 0 0 221 47 12 24 147 85 342 369 244 1 29 1040 1355 1028 630 805 791 566 447 707 1168 1294 870 474 0 0 0 0 0 0 0
0 0 0 0 0 0 0 0 0 0 0 0 0 0 0 0 0 0 0 378 194 1 93 100 111 21 132 0 94 876 1546 1624 1983 1397 1707 1656 941 1076 1265 1322 1027 413 0 0 4 0 0 0 16
0 0 0 0 0 0 0 0 0 0 0 0 0 0 0 0 0 0 0 40 21 3 10 0 0 0 0 10 145 320 1457 1370 1859 2021 1931 1990 1919 1893 1644 1155 1124 443 376 204 76 28 291 207 120
0 0 0 0 13 26 28 1 0 0 0 0 0 0 0 0 0 0 0 3 12 15 42 29 0 0 0 52 488 756 1666 1326 1854 1745 1903 1567 2003 1848 1829 1059 873 946 497 419 456 510 353 168 42
0 0 0 0 34 38 60 13 0 0 0 0 0 0 0 0 0 0 0 0 0 7 60 25 11 1 0 77 534 1425 2060 1979 2227 2145 1877 1552 1681 1655 1622 1217 974 947 714 618 410 596 204 20 50
0 0 0 0 6 22 20 0 0 0 0 0 0 0 0 0 0 0 0 0 0 0 5 0 0 56 182 96 737 2055 1684 1117 450 577 1398 1315 1523 1448 1478 1237 950 814 641 442 100 266 162 11 8
0 0 0 0 0 0 0 0 0 0 0 0 0 0 0 0 0 0 0 0 0 0 0 2 21 79 805 1200 1294 1220 896 621 636 635 1286 1255 1150 1139 1293 1151 1000 534 351 233 75 53 34 21 0
0 0 0 0 3 0 0 0 0 0 0 0 0 0 0 0 0 0 0 0 0 6 78 129 294 270 1128 1320 826 1077 1087 984 1118 781 821 1031 693 628 1057 963 741 363 130 18 0 0 0 0 0
0 0 0 0 0 0 0 0 0 0 0 0 0 0 0 0 0 0 8 13 203 254 334 532 675 561 624 801 834 532 733 696 470 310 254 187 120 121 180 249 136 188 125 21 0 0 0 0 6
0 0 0 0 0 0 0 0 0 0 0 0 0 0 0 0 22 207 153 295 232 149 129 122 83 52 84 45 0 0 0 0 0 0 0 0 0 0 47 31 80 86 115 36 10 0 0 0 0
0 0 0 0 1 0 2 21 0 6 0 0 0 0 13 231 243 158 130 75 33 11 0 0 0 0 0 0 0 0 0 0 0 0 0 0 0 0 0 0 11 65 58 39 13 2 5 7 13
0 0 0 0 0 0 0 0 0 0 0 0 0 0 301 251 224 92 2 0 0 0 0 0 0 0 0 0 0 0 0 0 0 0 0 0 0 0 0 0 0 0 0 0 15 61 71 61 45
0 0 0 0 0 10 0 0 0 0 0 0 0 334 238 64 65 1 0 0 0 0 0 0 0 0 0 0 0 0 0 0 0 0 0 0 0 0 0 0 0 0 0 0 0 0 2 2 15

GFSSGP_con_sbcape_135.txt.gz
CAPE
0 0 0 0 0 0 0 0 0 0 0 40 0 32 19 36 1 0 49 552 888 1303 1644 1685 1893 1762 1668 1388 1254 1113 1041 1063 1084 1014 1038 1167 1417 1698 1738 1723 1725 1172 589 336 228 396 495 435 321
0 0 0 0 0 0 0 0 0 0 71 21 79 30 32 11 70 480 593 585 1047 1382 1509 1260 1852 1832 1758 1413 1242 1170 1090 1034 1128 1080 1087 1158 1262 1407 1465 1738 1583 980 346 227 186 191 270 219 122
0 0 0 0 0 0 0 0 0 0 0 0 93 25 31 80 43 652 860 727 989 1344 1330 1087 1797 1777 1763 1450 1237 1206 1125 1052 1178 1245 1236 1240 1317 1369 1441 1509 1337 738 309 298 206 178 225 250 350
0 0 0 0 0 0 0 0 0 0 0 0 23 71 11 32 41 748 970 781 1017 1240 1276 1497 1720 1735 1697 1538 1344 1242 1192 1127 1223 1395 1387 1367 1337 1329 1313 1334 1116 868 432 400 388 394 407 312 283
0 0 0 0 0 0 0 0 0 0 0 0 119 57 0 0 0 927 880 782 782 1010 1125 1667 1684 1763 1736 1597 1474 1395 1307 1213 1285 1459 1384 1436 1584 1418 1213 1041 963 790 494 449 442 553 630 536 377
0 0 0 0 0 0 0 0 0 0 0 0 135 0 2 6 1136 1171 852 598 667 807 1164 1731 1807 1758 1665 1621 1498 1373 1283 1316 1383 1416 1514 1597 1568 1448 1255 963 926 994 904 701 523 526 436 210 149
0 0 0 0 0 0 0 0 0 0 0 10 87 17 0 49 1511 1279 848 543 681 1069 1559 1665 1646 1725 1704 1531 1426 1340 1270 1310 1362 1339 1378 1438 1447 1362 1209 972 885 919 981 1080 976 736 522 320 247
0 0 0 0 0 0 0 0 0 0 0 0 3 475 281 67 1449 869 918 961 1006 1284 1378 1305 1395 1517 1352 1347 1573 1457 1354 1329 1321 1350 1347 1312 1274 1231 1148 766 768 736 765 900 1012 934 715 527 435
0 0 0 0 0 0 0 0 0 0 0 0 0 3 47 1209 998 941 1089 999 930 1115 1106 1101 1127 1053 1205 1130 1327 1453 1326 1400 1379 1351 1299 989 678 766 743 580 792 821 677 688 777 842 771 669 623
0 0 0 0 0 0 0 0 0 0 0 0 0 665 462 181 587 922 831 740 668 716 755 866 880 803 822 1126 1157 964 944 1040 921 893 891 450 307 301 450 458 849 957 796 647 641 702 702 654 49
0 0 0 0 0 0 0 0 0 0 0 0 0 820 332 246 188 381 281 444 468 325 677 560 579 581 590 958 808 748 926 853 613 583 454 211 142 194 317 153 264 245 532 188 300 137 115 7 0
0 0 0 0 0 0 0 0 0 0 0 0 11 0 1 368 179 359 276 93 38 37 110 198 209 388 343 707 606 482 570 475 324 367 320 154 33 4 16 0 0 0 26 112 5 0 0 0 0
0 0 0 0 0 0 0 0 0 0 0 0 0 0 0 1 146 237 376 127 16 15 14 9 24 10 13 367 226 181 253 230 216 226 240 101 4 0 0 0 0 0 0 20 21 0 0 0 0
0 0 0 0 0 0 0 0 0 0 0 0 0 20 0 0 0 30 113 159 67 22 6 36 2 3 7 52 11 42 60 88 87 81 71 58 0 0 0 0 0 0 0 7 2 0 0 0 0
0 0 0 0 0 0 0 0 0 0 0 0 0 0 8 0 0 0 0 0 109 107 47 108 3 0 137 23 0 0 0 0 0 0 0 51 0 0 0 0 0 3 0 0 0 0 0 36 248
0 0 0 0 0 0 0 0 0 0 0 0 0 0 0 1 196 17 0 0 15 92 145 179 240 10 116 276 163 8 5 12 6 1 0 8 21 0 0 0 2 21 32 25 61 86 111 54 0
0 0 0 0 0 0 0 0 0 0 0 0 0 0 0 0 0 0 2 0 18 68 127 316 191 154 200 313 445 455 79 120 86 55 24 26 121 102 6 0 90 386 240 242 83 14 0 0 0
0 0 0 0 0 0 0 0 0 0 0 0 0 0 0 0 0 0 59 155 75 54 133 188 283 364 352 397 206 714 793 368 279 197 230 153 167 245 270 266 467 560 154 40 0 0 0 0 0
0 0 0 0 0 0 0 0 0 0 0 0 0 0 0 0 0 0 225 144 60 69 160 126 332 380 398 25 95 325 834 1193 725 506 592 422 387 340 332 687 795 369 168 110 0 0 0 0 0
0 0 0 0 0 0 0 0 0 0 0 0 0 0 0 0 0 0 2 291 201 98 64 105 93 177 271 24 80 373 799 1128 1544 1575 964 849 818 738 463 551 776 284 185 49 0 0 12 8 53
0 0 0 0 0 0 0 0 0 0 0 0 0 0 0 0 0 0 16 155 367 40 45 152 36 66 109 0 10 229 879 1300 1291 1492 1691 1699 1680 1413 978 873 797 625 467 556 218 66 148 338 134
0 0 0 0 0 0 0 0 0 0 0 0 0 0 0 0 0 0 0 28 136 136 23 52 39 0 0 0 24 193 448 1000 1498 1390 1333 1494 1413 1673 1406 1414 992 708 550 589 436 314 186 132 261
0 0 0 0 0 0 0 0 0 0 0 0 0 0 0 0 0 0 0 0 42 41 67 60 59 0 0 0 32 173 711 1316 811 541 1177 1437 1216 1452 1408 1298 1084 912 618 559 422 396 287 133 44
0 0 0 0 0 0 0 0 0 0 0 0 0 0 0 0 0 0 0 0 0 0 3 29 66 4 7 0 33 290 1191 1196 560 707 595 793 1061 1079 1113 1364 1157 1049 671 538 337 246 270 94 16
0 0 0 0 0 0 0 0 0 0 0 0 0 0 0 0 0 0 0 0 0 0 0 19 15 34 261 344 759 733 992 853 736 482 481 441 419 363 587 556 623 608 384 366 174 113 58 20 18
0 0 0 0 0 0 0 0 0 0 0 0 0 0 0 0 0 0 0 36 101 0 0 46 62 308 474 458 218 43 119 59 37 35 5 2 3 3 14 110 171 224 296 200 59 0 0 0 0
0 0 0 0 0 0 0 0 0 0 0 0 0 0 0 0 12 71 169 167 151 107 141 178 47 0 0 0 0 0 0 0 0 0 0 0 0 0 0 0 4 7 0 13 0 0 0 0 0
0 0 0 0 0 0 0 0 0 0 0 0 0 0 3 129 213 177 93 8 0 0 0 0 0 0 0 0 0 0 0 0 0 0 0 0 0 0 0 0 0 0 0 0 0 0 0 0 0
0 0 0 0 0 0 0 0 0 0 0 0 0 44 364 319 128 11 1 0 0 0 0 0 0 0 0 0 0 0 0 0 0 0 0 0 0 0 0 0 0 0 0 0 0 0 0 0 0
0 0 0 0 0 0 0 0 0 0 14 0 247 436 323 114 10 0 0 0 0 0 0 0 0 0 0 0 0 0 0 0 0 0 0 0 0 0 0 0 0 0 0 0 0 0 0 0 0

GFSSGP_con_sbcape_138.txt.gz
CAPE
0 0 0 0 0 0 0 0 0 0 0 0 0 0 0 0 0 0 62 239 952 1173 1427 1764 1842 1724 1479 1379 1272 1223 1181 1124 1156 1147 1195 1339 1483 1654 1739 1654 1526 1030 635 377 527 674 617 560 625
0 0 0 0 0 0 0 0 0 0 0 0 1 22 2 0 23 491 417 434 918 1261 1359 1506 1919 1789 1478 1310 1172 1133 1118 1079 1076 1128 1251 1469 1575 1651 1648 1703 1554 761 439 335 470 611 513 381 311
0 0 0 0 0 0 0 0 0 0 0 0 0 14 12 10 43 529 544 787 986 1238 1236 1342 1880 1773 1543 1329 1192 1162 1106 963 1016 1061 1176 1344 1543 1642 1723 1744 1396 603 331 308 322 395 538 375 611
0 0 0 0 0 0 0 0 0 0 0 0 0 0 8 0 77 692 620 937 1073 1134 884 1687 1872 1784 1496 1361 1250 1169 1119 1070 1050 1104 1188 1260 1195 1412 1492 1451 1194 809 447 339 333 448 626 574 537
0 0 0 0 0 0 0 0 0 0 0 0 0 0 91 0 792 898 815 964 1050 1096 925 1635 1866 1800 1593 1394 1317 1228 1172 1144 1225 1303 1300 1212 1256 1275 1213 1092 966 827 540 441 456 510 734 594 477
0 0 0 0 0 0 0 0 0 0 0 0 0 34 25 763 1054 887 835 784 1074 1065 1331 1387 1736 1747 1575 1433 1371 1237 1172 1194 1339 1414 1464 1482 1370 1254 1028 869 881 854 789 587 458 532 410 239 181
0 0 0 0 0 0 0 0 0 0 0 0 24 64 7 1233 1106 774 563 734 844 1248 1416 1336 1397 1443 1538 1452 1309 1217 1161 1205 1231 1309 1400 1443 1410 1241 1019 785 815 907 909 919 763 498 316 171 116
0 0 0 0 0 0 0 0 0 0 0 0 0 385 270 900 881 759 689 917 1174 1300 1220 1141 1059 1166 988 1137 1373 1249 1189 1240 1172 1174 1226 1246 1254 1147 1005 594 626 684 741 891 837 653 482 366 288
0 0 0 0 0 0 0 0 0 0 0 0 140 164 831 1051 1119 947 871 977 1010 1210 1036 943 883 941 812 925 1011 1231 1097 1205 1230 1186 1132 814 505 698 772 526 612 722 604 633 689 718 677 580 526
0 0 0 0 0 0 0 0 0 0 0 0 198 466 510 840 939 938 846 743 793 825 1002 723 728 682 955 1128 807 680 771 771 628 614 635 251 154 191 359 430 594 987 770 571 527 589 611 550 53
0 0 0 0 0 0 0 0 0 0 0 0 112 357 294 509 460 529 821 732 759 782 648 730 629 549 610 943 630 804 595 514 399 385 295 118 94 93 208 95 170 278 457 195 227 60 28 1 0
0 0 0 0 0 0 0 0 0 0 0 0 0 306 350 268 411 311 256 293 499 607 690 591 381 423 659 853 515 583 679 456 432 366 212 87 34 0 0 0 0 0 0 24 0 0 0 0 0
0 0 0 0 0 0 0 0 0 0 0 0 0 183 310 242 308 197 143 135 140 115 209 279 300 407 408 526 401 498 534 506 338 216 220 88 11 0 0 0 0 0 0 0 0 0 0 0 0
0 0 0 0 0 0 0 0 0 0 0 0 0 22 62 22 102 152 196 179 143 104 56 15 102 121 94 330 206 288 417 368 286 218 307 211 53 0 0 0 0 0 0 0 0 0 0 0 0
0 0 0 0 0 0 0 0 0 0 0 0 0 0 0 0 0 14 120 155 164 113 135 28 4 0 16 79 133 119 145 191 232 189 146 186 50 0 0 0 0 0 0 0 0 0 0 0 62
0 0 0 0 0 0 0 0 0 0 0 0 0 0 0 0 0 0 0 16 141 179 136 76 83 27 8 29 20 19 20 53 98 52 18 70 41 1 0 0 0 0 0 8 17 23 87 124 74
0 0 0 0 0 0 0 0 0 0 0 0 0 0 0 0 0 12 0 0 60 135 186 203 133 113 93 69 35 12 0 28 39 11 0 19 61 69 8 0 0 14 117 210 125 67 33 47 36
0 0 0 0 0 0 0 0 0 0 0 0 0 0 0 0 0 0 0 0 0 50 124 140 228 160 133 261 206 318 191 131 109 16 68 62 78 163 84 91 58 217 395 276 47 71 0 0 0
0 0 0 0 0 0 0 0 0 0 0 0 0 0 0 0 0 0 15 67 66 16 45 72 121 166 198 170 145 299 902 652 317 278 347 279 172 237 166 292 257 261 346 329 94 34 0 0 0
0 0 0 0 0 0 0 0 0 0 0 0 0 0 0 0 0 0 0 87 70 60 20 37 76 95 195 145 67 376 687 1021 1266 772 591 671 496 312 179 258 271 343 393 164 100 31 26 2 0
0 0 0 0 0 0 0 0 0 0 0 0 0 0 0 0 0 0 0 0 84 70 39 65 71 77 160 11 19 227 681 1073 1175 1462 1645 1173 794 610 415 282 320 409 350 361 172 92 70 174 80
0 0 0 0 0 0 0 0 0 0 0 0 0 0 0 0 0 0 0 0 97 123 47 20 48 13 24 0 43 113 270 513 860 1075 1097 1391 1625 1430 906 790 596 604 618 626 297 186 187 159 251
0 0 0 0 0 0 0 0 0 0 0 0 0 0 0 0 0 0 0 0 0 8 55 15 15 26 0 0 0 1 177 761 577 677 745 877 1058 1195 1338 1330 891 799 649 619 390 232 205 198 202
0 0 0 0 0 0 0 0 0 0 0 0 0 0 0 0 0 0 0 0 0 0 9 18 27 4 17 0 2 37 387 616 612 495 517 517 663 556 597 881 905 821 687 528 406 294 287 290 123
0 0 0 0 0 0 0 0 0 0 0 0 0 0 0 0 0 0 0 0 0 0 0 2 56 12 23 62 244 306 378 369 306 92 49 25 27 9 0 61 306 383 299 240 222 209 203 209 150
0 0 0 0 0 0 0 0 0 0 0 0 0 0 0 0 0 0 0 0 0 0 0 0 0 185 174 8 0 0 0 0 0 0 0 0 0 0 0 1 19 31 28 53 36 31 19 2 16
0 0 0 0 0 0 0 0 0 0 0 0 0 0 0 0 0 0 18 29 17 18 34 6 0 0 0 0 0 0 0 0 0 0 0 0 0 0 0 0 0 0 0 0 0 1 0 0 0
0 0 0 0 0 0 0 0 0 0 0 0 0 0 2 105 61 0 0 0 0 0 0 0 0 0 0 0 0 0 0 0 0 0 0 0 0 0 0 0 0 0 0 0 0 0 0 0 0
0 0 0 0 0 0 0 0 0 0 0 0 0 71 256 101 3 0 0 0 0 0 0 0 0 0 0 0 0 0 0 0 0 0 0 0 0 0 0 0 0 0 0 0 0 0 0 0 0
0 0 0 0 0 0 0 0 0 0 0 1 231 280 141 17 0 0 0 0 0 0 0 0 0 0 0 0 0 0 0 0 0 0 0 0 0 0 0 0 0 0 0 0 0 0 0 0 0

GFSSGP_con_sbcape_141.txt.gz
CAPE
0 0 0 0 0 0 0 0 0 0 0 0 1 30 50 37 72 1 698 915 981 1233 1263 1173 1656 1605 1511 1508 1485 1428 1417 1438 1339 1126 1055 1315 1584 1658 1396 1358 1101 721 416 485 646 582 549 723 845
0 0 0 0 0 0 0 0 0 0 0 0 1 124 54 32 329 902 850 828 1012 1213 1173 789 1643 1591 1515 1334 1220 1151 1203 1199 1147 1174 1323 1505 1602 1535 1319 1437 1073 575 356 521 684 587 564 680 614
0 0 0 0 0 0 0 0 0 0 0 0 0 30 8 239 376 786 703 1021 1202 1120 1067 1247 1691 1477 1434 1241 1135 1072 1052 1090 1232 1333 1468 1534 1596 1553 1565 1525 1034 477 317 407 574 482 388 377 587
0 0 0 0 0 0 0 0 0 0 0 0 0 0 96 96 276 871 905 1037 1051 865 828 1651 1708 1490 1384 1226 1132 1020 1008 1047 1145 1304 1399 1397 1245 1442 1548 1357 960 729 334 297 371 390 394 539 605
0 0 0 0 0 0 0 0 0 0 0 0 0 0 40 190 1327 1172 1042 1066 995 918 813 1210 1696 1514 1481 1251 1209 1058 1006 978 1063 1161 1181 1096 1120 1277 1332 1203 992 757 450 351 358 426 436 388 371
0 0 0 0 0 0 0 0 0 0 0 0 0 0 264 1137 1442 1236 1115 1172 998 1025 1126 1205 1654 1543 1415 1354 1273 1135 1043 1111 1196 1208 1229 1152 1164 1083 883 839 714 671 606 450 428 455 394 395 300
0 0 0 0 0 0 0 0 0 0 0 0 0 125 593 1429 1415 1272 1181 1251 1108 1107 1207 1076 996 1307 1550 1445 1239 1145 1141 1251 1295 1351 1361 1296 1225 1012 740 651 592 618 695 615 450 308 250 125 70
0 0 0 0 0 0 0 0 0 0 0 0 2 408 648 1640 1196 1254 1266 1231 1275 1147 1103 1089 1015 761 719 796 1335 1243 1211 1219 1250 1322 1336 1340 1262 1029 725 412 544 476 534 646 611 418 363 241 201
0 0 0 0 0 0 0 0 0 0 0 320 996 1147 1553 1404 1429 1430 1423 1365 1413 1257 1106 1056 1049 986 811 748 969 1178 1071 1148 1226 1191 1265 801 546 637 554 267 374 350 298 439 572 624 559 426 379
0 0 0 0 0 0 0 0 0 0 0 0 1106 1288 1389 1570 1554 1457 1380 1331 1332 1366 1280 1230 1164 1150 1046 696 927 672 585 514 486 473 549 377 448 526 324 390 426 562 473 555 501 483 346 117 0
0 0 0 0 0 0 0 0 0 0 0 0 563 1314 1466 1557 1687 1538 1341 1257 1143 1242 1403 1285 1382 1331 1298 989 932 806 692 673 757 747 854 593 404 444 340 365 284 303 404 158 61 22 0 0 0
0 0 0 0 0 0 0 0 0 0 0 0 1075 1231 1401 1515 1597 1557 1395 1199 1081 1190 1217 1344 1313 1388 1419 1332 1074 953 852 690 573 640 871 703 536 431 347 270 237 260 89 124 199 52 190 169 23
0 0 0 0 0 0 0 0 0 0 0 0 867 953 1257 1455 1378 1373 1409 1314 1243 1141 1033 1214 1233 1324 1466 1526 1230 1130 1130 1034 750 755 811 647 504 413 322 278 177 86 46 29 43 312 563 458 376
0 0 0 0 0 0 0 0 0 0 0 0 775 835 734 1194 1281 1139 1243 1356 1365 1403 1134 1061 1126 1171 1125 1291 1397 1357 1279 1202 1095 764 736 722 580 676 354 265 123 88 67 47 177 521 666 758 623
0 0 0 0 0 0 0 0 0 0 0 0 76 753 376 564 951 1206 1200 1348 1408 1345 1428 1327 1176 1085 1156 1428 1461 1288 1165 1074 1002 956 1013 964 962 936 576 232 128 67 164 449 555 632 706 888 999
0 0 0 0 0 0 0 0 0 0 0 0 0 0 268 251 252 688 974 1116 1089 1205 1196 1257 1059 1122 1273 1677 1588 1197 887 875 875 971 1108 1052 1090 954 647 338 178 101 190 447 734 936 1021 1026 1190
0 0 0 0 0 0 0 0 0 0 0 0 0 0 0 29 174 243 270 657 979 1095 1117 1091 1033 1007 1041 1014 774 765 694 781 604 638 622 781 870 728 602 322 199 214 153 413 715 975 1227 1353 1514
0 0 0 0 0 0 0 0 0 0 0 0 0 0 0 0 0 4 53 31 274 883 1059 1135 975 939 849 640 449 526 327 427 318 190 356 476 422 360 415 347 358 356 309 375 453 1020 1507 1077 1153
0 0 0 0 0 0 0 0 0 0 0 0 0 0 0 0 0 0 0 0 87 291 896 1147 1236 1168 787 786 727 811 1046 861 527 598 678 488 332 357 654 611 668 757 764 1041 1143 969 1180 1234 222
0 0 0 0 0 0 0 0 0 0 0 0 0 0 0 0 0 0 0 148 381 392 431 878 1073 1267 1133 1069 1043 1121 1021 1262 1382 1317 1201 966 844 834 976 1049 1130 1228 1200 1200 933 1022 733 315 780
0 0 0 0 0 0 0 0 0 0 0 0 0 0 0 0 0 0 0 0 179 502 611 588 784 1231 1057 1013 854 880 1447 2096 2196 2350 2284 1870 1328 1210 1348 1414 1586 1508 1486 1625 1380 1281 1058 848 1098
0 0 0 0 0 0 0 0 0 0 0 0 0 0 0 0 0 0 0 0 2 137 393 722 884 918 883 920 887 921 979 1172 1831 2059 2162 2312 2443 2151 1907 1879 1684 1526 1687 1702 1851 1693 1161 798 657
0 0 0 0 0 0 0 0 0 0 0 0 0 0 0 0 0 0 0 0 0 33 300 488 690 982 932 806 927 961 901 1306 1685 1654 1681 1917 1763 1961 2268 2550 2354 1824 1744 1579 1231 945 1319 1049 994
0 0 0 0 0 0 0 0 0 0 0 0 0 0 0 0 0 0 0 0 0 0 22 426 390 482 583 583 684 807 815 976 1044 1323 1520 1119 1009 543 304 506 1425 1764 1844 1549 1751 1523 1121 1329 585
0 0 0 0 0 0 0 0 0 0 0 0 0 0 0 0 0 0 0 0 0 0 3 139 371 325 369 395 469 556 757 1115 927 403 153 91 54 2 14 142 265 387 599 817 860 938 927 1126 1423
0 0 0 0 0 0 0 0 0 0 0 0 0 0 0 0 0 0 0 0 0 0 0 38 302 549 651 629 525 482 305 79 13 0 0 0 0 0 0 0 0 9 87 209 232 305 314 368 478
0 0 0 0 0 0 0 0 0 0 0 0 0 0 0 0 0 0 0 0 0 14 220 282 320 283 250 112 67 23 4 0 1 0 0 0 0 0 0 0 0 0 0 0 21 56 99 131 209
0 0 0 0 0 0 0 0 0 0 0 0 0 0 0 0 2 2 6 9 18 62 145 197 92 49 5 0 0 0 0 0 0 0 0 0 0 0 0 0 0 0 0 0 0 0 0 1 40
0 0 0 0 0 0 0 0 0 6 7 0 0 177 17 18 2 1 2 3 11 19 13 0 5 0 0 0 0 0 0 0 0 0 0 0 0 0 0 0 0 0 0 0 0 0 0 0 0
0 0 0 0 0 0 0 0 0 11 21 0 268 20 12 7 3 4 17 0 0 0 0 0 0 0 0 0 0 0 0 0 0 0 0 0 0 0 0 0 0 0 0 0 0 0 0 0 0

GFSSGP_con_sbcape_144.txt.gz
CAPE
0 0 0 0 0 0 0 0 0 0 83 0 8 318 261 161 219 411 1007 791 678 714 273 696 1675 1882 2133 2083 1995 1907 1836 1716 1578 1262 1080 1474 1739 1652 1412 1336 1103 752 496 495 442 413 344 346 423
0 0 0 0 0 0 0 0 0 0 0 0 29 224 106 185 552 1182 1176 753 902 582 160 258 1569 1738 1881 1814 1712 1649 1587 1395 1214 1157 1436 1737 1669 1416 1120 1147 862 533 541 714 635 564 772 1020 1108
0 0 0 0 0 0 0 0 0 0 0 0 10 78 0 530 755 775 1051 1058 956 531 156 693 1723 1624 1614 1646 1527 1463 1382 1298 1352 1462 1672 1687 1628 1544 1517 1283 969 436 515 765 757 618 722 599 509
0 0 0 0 0 0 0 0 0 0 0 0 0 0 155 477 668 931 1094 1017 921 483 418 1345 1616 1567 1484 1392 1383 1321 1343 1381 1513 1644 1662 1634 1376 1524 1655 1163 844 552 361 610 652 501 389 538 750
0 0 0 0 0 0 0 0 0 0 0 0 0 0 201 849 1342 1172 1027 906 588 555 734 802 1569 1548 1401 1293 1264 1218 1270 1368 1507 1593 1510 1403 1424 1380 1266 948 587 448 326 353 438 372 412 506 413
0 0 0 0 0 0 0 0 0 0 0 0 1 99 1119 1346 1594 1048 839 683 490 580 737 859 1489 1522 1390 1335 1203 1107 1112 1230 1356 1393 1421 1325 1265 1192 999 836 648 578 465 353 318 381 283 176 189
0 0 0 0 0 0 0 0 0 0 0 0 0 270 1593 1648 1787 979 806 768 696 755 726 746 611 1123 1460 1357 1145 1049 1028 1099 1166 1220 1255 1286 1237 1034 689 598 599 609 548 469 403 321 177 97 49
0 0 0 0 0 0 0 0 0 0 0 0 33 229 1514 1902 1938 1381 1087 1028 926 892 840 683 546 335 390 621 1320 1189 1131 1125 1108 1178 1204 1226 1147 854 483 554 544 483 497 526 440 272 149 99 63
0 0 0 0 0 0 0 0 0 0 0 16 668 802 1870 1853 1869 1648 1419 1269 1131 923 900 645 554 445 302 260 703 1153 1140 1241 1178 1145 1269 760 185 533 486 99 281 239 207 312 396 374 318 267 260
0 0 0 0 0 0 0 0 0 0 0 4 794 1620 1809 1865 1926 1715 1362 1391 1249 1139 1048 816 705 755 627 471 566 370 347 255 206 205 505 214 187 438 148 219 187 284 232 191 176 171 148 96 0
0 0 0 0 0 0 0 0 0 0 0 0 104 1475 1976 2049 2027 1957 1495 1576 1452 1332 1186 1109 1325 1233 985 688 657 598 604 542 548 541 624 233 201 303 118 51 59 31 211 6 32 0 0 0 0
0 0 0 0 0 0 0 0 0 0 0 0 101 1306 1876 2128 2112 1935 1847 1773 1608 1438 1313 1466 1680 1766 1412 993 1003 959 881 898 891 888 1187 818 574 301 106 40 17 120 8 4 74 5 20 150 101
0 0 0 0 0 0 0 0 0 0 0 0 459 1393 1926 2270 2336 2153 1989 1936 1773 1715 1668 1680 1872 2058 2016 1804 1347 1167 1188 1163 1012 999 1174 841 612 430 199 159 101 30 0 18 11 53 588 772 586
0 0 0 0 0 0 0 0 0 0 0 0 423 809 1198 1880 2306 2409 2314 2180 1946 1861 1871 1810 1890 2169 2143 2186 1885 1650 1580 1356 1307 1224 1111 1143 913 908 381 285 139 58 15 1 10 139 1003 1103 1151
0 0 0 0 0 0 0 0 0 0 0 0 290 509 631 1226 1815 2335 2482 2517 2228 2042 1861 1948 1961 2080 2228 2216 2133 1973 1622 1516 1561 1370 1303 1271 1212 1079 834 250 130 35 36 102 187 706 929 1122 1279
0 0 0 0 0 0 0 0 0 0 0 0 86 255 305 720 1270 1702 2154 2573 2526 2384 2397 2105 1677 1861 2161 2048 1979 1690 1474 1537 1545 1477 1443 1390 1429 1181 1201 395 179 30 91 116 667 922 965 1016 1033
0 0 0 0 0 0 0 0 0 0 0 0 0 0 15 205 460 857 1163 1792 2298 2494 2546 2531 2273 1814 1898 1880 1868 1821 1641 1689 1397 1309 1349 1472 1360 1186 1226 433 188 321 92 57 230 955 1416 1627 1820
0 0 0 0 0 0 0 0 0 0 0 0 0 0 0 0 129 293 390 297 888 1859 2475 2601 2503 2290 2121 1937 1857 1443 1204 1078 900 940 1024 1173 1002 1030 1146 461 339 452 95 58 104 703 1084 1787 1899
0 0 0 0 0 0 0 0 0 0 0 0 0 0 0 0 0 13 151 208 197 720 1952 2511 2601 2415 2159 1812 1523 1218 995 829 592 697 885 866 843 810 886 468 439 688 497 626 737 858 1375 1486 1652
0 0 0 0 0 0 0 0 0 0 0 0 0 0 0 0 0 0 0 84 283 411 770 1507 2297 2517 2460 1993 1838 1425 1252 1218 1074 1028 1100 1359 1240 1127 1083 1154 1376 1576 1655 2025 2104 2208 1602 1347 1482
0 0 0 0 0 0 0 0 0 0 0 0 0 0 0 0 0 0 0 16 343 681 1009 1319 1894 2133 2410 2205 2099 2007 1780 1877 2108 2043 1950 2130 1977 2000 1887 1814 1959 1879 2171 3045 2898 2764 2201 493 1097
0 0 0 0 0 0 0 0 0 0 0 0 0 0 0 0 0 0 0 0 76 334 840 1164 1456 1790 2184 2546 2246 2250 1863 1798 1763 2130 2526 3245 2861 2648 2658 2514 2483 2633 2788 3578 3045 3214 1922 1446 1835
0 0 0 0 0 0 0 0 0 0 0 0 0 0 0 0 0 0 0 0 0 0 95 768 1361 1753 1934 2247 2337 2089 2191 1562 2089 2149 2033 2099 2256 2332 2052 2510 2874 2905 2707 2652 2714 2778 2797 1970 2141
0 0 0 0 0 0 0 0 0 0 0 0 0 0 0 0 0 0 0 0 0 0 0 361 1208 1474 1824 1878 2136 2213 1984 2015 1899 1766 1713 1703 1810 1468 1348 1396 2087 2472 2431 2264 2624 2781 2971 2527 1838
1 0 0 0 0 0 0 0 0 0 0 0 0 0 0 0 0 0 0 0 0 0 0 62 906 1099 1283 1306 1502 1752 1901 1835 1748 1612 1145 900 689 465 497 722 832 856 962 1097 1426 1715 1722 1825 1559
0 0 0 0 0 0 0 0 0 0 0 0 0 0 0 0 0 0 0 0 0 0 0 130 756 1037 1124 1077 1368 1393 1415 1170 906 452 253 134 48 9 2 1 11 12 50 235 553 729 707 795 766
0 0 0 0 0 0 0 0 0 0 0 0 0 0 0 0 0 0 0 0 0 0 46 330 887 761 665 538 509 405 381 251 90 37 21 0 0 0 0 0 0 0 0 0 0 0 97 231 504
0 0 0 0 0 0 0 0 0 0 0 0 0 0 0 0 76 88 229 292 259 483 574 432 455 381 185 111 69 45 28 14 0 0 0 0 0 0 0 0 0 0 0 0 0 0 0 0 3
0 0 0 1 0 0 0 0 0 4 0 1 413 362 338 41 29 17 42 92 200 145 157 87 55 34 8 4 0 0 0 0 0 0 0 0 0 0 0 0 0 0 0 0 0 0 0 0 0
0 0 0 0 0 4 0 13 6 2 56 546 112 27 14 79 100 78 39 48 91 54 8 2 0 0 0 0 0 0 0 0 0 0 0 0 0 0 0 0 0 0 0 0 0 0 0 0 0

GFSSGP_con_sbcape_147.txt.gz
CAPE
0 0 0 0 0 0 0 0 11 50 13 92 243 515 483 506 653 1187 904 487 675 665 657 1190 2220 1999 2488 2113 1817 1573 1431 1516 1615 1379 1319 1591 1849 1725 1448 1365 1092 567 435 285 266 288 334 357 372
0 0 0 0 0 0 0 0 9 17 58 0 94 307 233 631 1076 1038 724 524 741 412 354 1033 2067 2013 2376 2134 1945 1830 1741 1720 1464 1236 1552 1711 1723 1496 1036 1077 803 488 467 425 439 416 488 803 957
0 0 0 0 0 0 7 0 13 13 0 0 237 241 95 785 923 872 651 640 638 278 189 1480 2041 2115 2169 2048 1886 1737 1593 1386 1300 1507 1687 1482 1360 1301 1264 1164 835 477 667 699 582 659 923 902 496
0 0 0 0 0 0 0 47 0 30 0 0 0 67 523 871 923 1032 670 705 438 153 338 1542 1850 1942 2015 1980 1808 1614 1470 1445 1485 1667 1712 1491 1188 1318 1286 894 636 437 606 708 620 553 538 433 698
0 0 0 0 0 0 0 24 8 2 2 0 0 78 737 1317 1378 1012 822 676 236 179 407 1043 1728 1826 1920 1927 1765 1624 1509 1474 1618 1735 1697 1462 1326 1256 1012 645 522 384 365 602 580 414 348 509 477
0 0 0 0 0 0 1 51 0 0 0 0 74 203 1309 1186 1411 1000 909 510 276 432 230 526 1497 1670 1717 1747 1652 1527 1430 1515 1589 1642 1658 1587 1411 1220 959 645 492 416 297 302 339 286 283 225 190
0 0 0 0 0 0 0 0 0 0 1 0 0 286 1634 1645 1324 1021 814 451 500 727 266 159 247 941 1502 1488 1421 1342 1314 1365 1425 1440 1452 1472 1420 1212 913 705 592 564 485 351 250 245 186 111 103
0 0 0 0 0 0 0 3 0 0 0 0 0 393 1773 1992 1293 1084 769 531 607 780 610 238 118 52 66 417 1294 1246 1224 1273 1271 1311 1308 1289 1202 891 535 656 557 495 494 391 298 210 107 59 52
0 0 0 0 0 0 0 7 0 0 0 0 252 1159 2374 2107 1603 1227 1085 821 732 649 786 470 291 175 90 32 374 1011 1063 1233 1228 1112 1234 697 30 313 368 153 529 318 302 339 380 339 286 264 491
0 0 0 0 0 0 0 0 0 0 0 0 579 1260 1583 1900 1974 1481 1432 1261 1019 832 715 568 526 519 414 253 292 75 17 24 17 19 200 18 12 405 303 359 462 201 162 142 263 283 286 285 0
0 0 0 0 0 0 0 0 0 0 0 0 464 1494 1481 1991 2192 1844 1660 1478 1265 1027 782 735 1368 1328 783 490 500 353 251 153 91 123 525 530 99 539 241 334 120 2 249 3 46 21 0 0 0
0 0 0 0 0 0 0 0 0 0 0 2 3 1358 1540 1871 2322 2067 1717 1633 1427 1232 990 941 1025 1668 1991 832 775 656 643 627 610 620 943 1048 329 443 170 7 27 106 36 36 80 45 54 24 52
0 0 0 0 0 0 0 0 0 0 0 0 6 931 1489 1843 2159 2272 1938 1861 1743 1538 1308 1149 1393 1966 2532 2320 1188 1065 1207 835 1075 1103 1270 820 590 637 258 262 43 35 11 11 33 0 29 250 580
0 0 0 0 0 0 0 0 0 0 0 0 12 737 1236 1755 2178 2315 2247 2232 2247 2018 1716 1551 1754 2946 2160 2438 2598 1474 1500 1380 1218 1075 1218 1368 1054 1808 369 386 155 49 16 21 7 10 103 838 807
0 0 0 0 0 0 0 0 0 0 0 0 8 476 656 1420 1875 2406 2476 2397 2540 2568 2323 2151 2121 2711 3508 2604 2414 2337 1627 1421 1262 1102 1771 1575 1656 1192 1975 352 218 45 143 41 46 34 216 604 780
0 0 0 0 0 0 0 0 0 0 0 0 0 340 510 760 1494 2011 2559 2863 2967 3287 3061 2477 2081 2189 2777 2889 2740 2318 1845 1495 1305 1283 1306 1569 1599 1638 2246 833 309 136 128 34 41 103 518 572 684
0 0 0 0 0 0 0 0 0 0 0 0 0 151 381 589 971 1582 2025 2877 3317 3489 3102 3069 2599 2162 2476 3040 2664 2670 2653 1778 1469 1909 1816 1590 1665 1653 1994 1081 356 1262 81 54 27 249 892 1331 1633
0 0 0 0 0 0 0 0 0 0 0 0 0 70 227 337 495 981 1513 2335 2970 3055 3587 3420 3168 2629 2592 2571 2524 2086 1762 1757 1568 1353 1306 1338 1541 1566 1887 1528 1581 978 260 72 32 1043 725 1397 2246
0 0 0 0 0 0 0 0 0 0 0 0 0 2 0 11 256 367 372 443 966 2105 2907 3100 3586 3728 3043 2460 2114 1822 1645 1404 1314 1131 1468 1073 1256 1045 1882 993 1332 988 810 1018 1528 717 1319 987 1670
0 0 0 0 0 0 0 0 0 0 0 0 0 3 0 0 19 151 268 346 288 716 1772 2973 3196 3643 3296 2973 2912 2016 1676 1329 1205 945 945 832 1033 1396 1688 1795 1303 1515 1097 2375 2003 2493 2673 1644 1461
0 1 0 0 0 0 0 0 0 0 0 0 0 0 0 0 0 21 116 212 461 606 904 1362 2272 2979 3221 3018 2737 2565 2178 2080 1738 1703 1521 1657 1442 1595 1878 1783 2520 3255 3023 3692 3460 3136 2947 2029 1361
0 0 0 0 0 0 0 0 0 0 0 0 0 0 0 0 0 0 5 133 392 771 936 1236 1750 2442 2688 2871 3178 3488 2738 2357 2536 2867 2375 2217 2012 2383 2432 2814 2717 3309 3863 3773 3022 2807 2781 2636 1348
0 0 0 0 0 0 0 0 0 0 0 0 0 0 0 0 0 0 0 0 80 284 425 1206 1589 1860 2046 2563 2956 3333 3126 2348 1977 2935 2560 2466 2527 2052 1987 2278 2281 2107 2822 3206 3266 3393 3100 2465 2613
2 1 0 0 0 0 0 0 0 0 0 0 0 0 0 0 0 0 0 0 0 0 50 481 1508 1714 2026 2301 2522 2739 2808 2931 2801 2229 2332 2358 2055 2050 1390 1539 1643 2241 2534 2353 2789 2876 2634 2808 2899
7 18 10 5 3 0 0 0 29 0 0 0 0 0 0 0 0 0 0 0 0 0 3 611 1331 1441 1565 1703 1803 2244 2900 2803 2462 2064 2263 1702 718 831 562 499 588 586 499 741 1187 1360 1655 1843 1724
12 4 1 0 0 0 5 0 0 0 0 0 0 0 0 0 0 0 0 0 0 0 0 195 901 1269 1164 1301 1570 2366 2339 1749 1055 1057 812 577 198 53 27 62 24 10 0 0 15 36 466 921 665
11 13 0 9 4 10 4 3 0 0 0 0 0 0 0 0 0 0 0 0 0 0 105 389 1309 1412 1157 1059 1094 879 772 741 482 364 154 56 16 0 0 0 0 0 0 0 0 0 58 106 126
9 0 9 3 54 25 23 2 0 0 0 0 0 0 0 0 0 0 39 1 68 1011 1201 955 854 540 436 405 350 233 118 38 26 12 0 0 0 0 0 0 0 0 0 0 0 0 0 0 0
1 0 2 2 19 36 11 8 2 0 0 4 25 32 536 509 423 491 608 971 812 689 626 477 394 200 10 5 1 0 0 0 0 0 0 0 0 0 0 0 0 0 0 0 0 0 0 0 3
0 0 5 28 30 35 33 80 3 33 56 476 625 688 191 335 353 397 418 318 309 363 200 48 10 1 0 0 0 0 0 0 0 0 0 0 0 0 0 0 0 0 0 0 0 0 0 0 0

GFSSGP_con_sbcape_150.txt.gz
CAPE
0 0 0 0 0 0 0 0 0 0 46 98 218 303 592 461 946 852 131 1230 819 630 1265 1723 2179 2160 2217 1868 1598 1420 1286 1461 1417 1223 1515 1784 1906 1574 1370 1179 1029 879 528 502 326 327 292 333 328
0 0 0 0 0 0 0 0 0 1 5 0 215 287 727 896 805 637 404 1141 496 781 1130 1647 2151 2304 2131 1826 1558 1408 1474 1576 1367 1372 1586 1782 1780 1463 1204 1155 976 795 446 381 359 399 480 764 905
0 0 0 0 0 0 0 0 0 18 39 20 134 209 832 893 753 461 1039 821 523 406 1120 2018 2030 2165 2086 1845 1607 1533 1635 1532 1271 1471 1617 1585 1502 1307 1216 1097 924 773 568 512 542 774 1003 855 501
0 0 0 0 0 0 0 0 0 45 22 10 114 700 1040 796 927 473 906 535 318 128 1208 1973 1971 1829 2080 1952 1791 1694 1581 1366 1355 1625 1591 1466 1298 1203 1244 1055 856 858 745 688 598 677 594 387 636
0 0 0 0 0 0 0 0 0 14 30 1 0 647 930 1220 897 576 737 331 178 426 1160 1822 2016 2085 2074 1941 1758 1556 1425 1353 1500 1652 1577 1412 1326 1257 1055 888 689 605 633 676 594 403 314 432 417
0 0 0 0 0 0 0 0 3 0 12 2 1 630 1088 1321 844 787 568 219 93 796 827 1543 1952 1991 1973 1842 1652 1475 1408 1425 1557 1645 1563 1450 1418 1326 987 751 661 519 439 506 509 334 278 240 221
0 0 0 0 0 0 0 0 18 0 0 21 1 1266 1169 1129 916 877 491 205 473 466 524 1206 1448 1767 1898 1801 1648 1506 1419 1496 1554 1531 1476 1430 1427 1336 1080 840 751 681 575 509 403 325 251 188 199
0 0 0 0 0 0 0 0 34 6 5 2 1 1295 1430 1247 1079 838 306 320 623 217 208 365 1006 1134 1419 1357 1663 1564 1508 1477 1452 1467 1396 1360 1361 1268 1094 895 805 834 704 558 445 333 232 195 237
0 0 0 0 0 0 0 0 0 10 0 0 30 2230 1949 1196 1086 796 541 561 679 308 184 67 53 321 229 670 1216 1404 1301 1326 1352 1307 1281 936 287 548 471 116 625 841 721 624 535 438 389 391 468
0 0 0 0 0 0 0 0 22 47 5 9 303 2302 1897 1841 1363 1010 770 795 755 657 289 155 103 120 30 4 630 419 359 346 366 332 671 273 119 334 319 254 669 754 612 567 623 624 626 576 3
0 0 0 0 0 0 0 0 106 81 9 0 45 1369 1820 1982 2074 1414 1022 879 846 897 577 461 639 670 274 155 189 107 115 89 116 171 441 238 35 723 472 485 128 208 380 46 131 139 73 0 0
0 0 0 0 0 0 0 0 0 11 0 2 9 1242 1272 1578 2010 1795 1480 1191 1044 1045 768 769 1185 1169 1679 624 220 468 243 196 114 193 761 405 731 1899 1214 618 396 49 45 32 144 29 30 64 35
0 0 0 0 0 0 0 0 0 0 0 9 1101 1454 1263 1828 2080 2084 1880 1796 1523 1358 1049 981 1413 1542 2706 1064 726 967 907 806 732 850 1215 838 859 1459 1037 852 493 256 297 283 262 347 297 604 398
0 0 0 0 0 0 0 0 0 0 0 32 3 1062 1357 1514 2080 2712 2305 1974 2112 1912 1776 1467 1667 2143 2635 3533 2001 1992 2143 1536 1783 1452 1410 1431 1925 2298 1131 1269 1070 466 476 155 270 110 320 462 566
0 0 0 0 0 0 0 0 0 0 0 0 0 296 777 1506 1789 2230 2827 3325 2540 2655 2417 2779 2618 2752 3433 3155 3681 3386 3283 1548 2109 2248 2553 1802 2146 2281 1171 1299 859 516 298 675 542 709 548 594 675
0 0 0 0 0 0 0 0 0 0 0 0 0 51 477 1442 1510 2033 2416 3319 3798 3051 3407 3395 2073 2933 3473 3924 3721 3465 2803 2863 2412 2407 2730 2283 2303 2148 2367 1627 1374 759 928 647 277 465 227 248 559
0 0 0 0 0 0 0 0 0 0 0 0 0 0 464 968 1552 2290 2587 3894 4258 4375 4027 3932 3765 2614 3324 3840 3559 3720 3564 3371 2871 2974 2961 2430 2327 2178 2149 2005 1359 1937 875 645 720 514 636 1076 1852
0 0 0 0 0 0 0 0 0 0 0 0 0 0 513 734 1245 1957 2505 3506 3658 4080 4020 3780 3513 3799 3118 3272 3608 3480 2846 3082 3005 2998 2530 2324 2210 2021 2184 1729 1720 2457 1071 753 527 444 555 1124 1455
0 0 0 0 0 0 0 0 0 0 0 0 0 1 466 737 967 1714 2347 3527 3378 3368 2584 3270 3600 3841 3459 3525 2679 2357 2637 2611 2695 2207 2143 1666 1929 1741 2046 1819 1630 1493 1373 1098 1208 1026 1260 923 1207
0 0 0 0 0 0 0 0 0 0 0 0 0 4 290 602 842 1009 1421 1822 3420 3719 3490 3224 3295 3555 3263 3412 3433 3082 2297 2281 1975 2037 1977 1728 1613 1979 1975 1937 1429 1613 1268 1507 1000 2144 1400 1081 1133
0 0 0 0 0 0 0 0 0 0 0 0 0 11 158 223 593 902 814 1037 1228 1999 3164 3754 3732 3539 3537 3321 3561 3526 3243 3043 3099 2174 2052 1413 1182 1782 1928 1912 2002 1423 1759 1727 1305 1076 902 955 1135
0 0 0 0 1 0 0 0 0 0 0 0 0 0 68 64 139 755 716 1013 1193 1256 1594 2562 3556 3968 3684 3462 2946 3090 2644 2349 2708 3037 2393 2734 1657 1218 1461 949 1348 1015 863 1025 870 272 793 1070 1016
0 0 0 0 7 1 0 0 0 0 0 0 0 0 2 16 120 416 425 713 909 1280 1608 2274 3104 3734 3402 3769 3374 3173 2741 2733 2844 2880 2476 2433 2680 2246 1754 1414 1089 850 796 651 350 811 840 941 887
0 0 0 2 8 0 0 0 0 0 0 0 0 0 0 2 11 17 32 410 617 679 1336 2187 2781 3321 3347 3019 3697 3127 3313 3282 2391 2608 1852 1894 1959 1552 690 1265 1285 753 865 1024 1241 1405 1472 1153 1428
2 29 4 7 19 0 0 0 0 0 0 0 0 0 0 0 3 0 0 0 347 360 1589 2216 2397 2611 2664 3002 2175 2347 2865 2736 2577 2374 2450 1817 801 377 767 435 304 232 144 92 149 65 238 675 801
7 27 1 9 0 0 0 0 0 0 0 0 0 0 0 0 0 0 0 2 0 38 1636 1679 1836 1899 2216 2305 2182 2213 1496 1152 1077 1137 741 338 161 27 133 4 59 18 4 7 1 1 14 166 214
3 27 0 0 0 0 0 0 0 0 0 0 0 0 0 0 0 0 0 0 7 559 1708 1597 1574 1946 1661 1100 647 682 554 654 373 72 25 2 0 0 0 0 0 0 0 0 0 0 0 0 0
10 0 15 9 15 7 16 22 1 0 0 0 0 0 0 0 0 0 182 1215 1471 1576 1249 1071 855 900 818 707 164 9 0 0 0 0 0 0 0 0 0 0 0 0 0 0 0 0 0 0 0
0 1 0 0 20 54 36 32 4 0 0 0 0 1 4 1 99 731 949 1015 957 973 784 642 405 67 9 0 0 0 0 0 0 0 0 0 0 0 0 0 0 0 0 0 0 0 0 0 0
0 0 0 27 50 5 77 69 4 2 5 88 538 461 584 791 850 834 727 733 580 465 283 140 2 0 0 0 0 0 0 0 0 0 0 0 0 0 0 0 0 0 0 5 0 0 0 0 0